| time (UTC) | temp F | wind direction | speed knots | gust knots | rain 1hr in | rain 24hr in | rain mn in | humidity % | barometer mb |
| 20260906031525 | 71 | 242 | 0.0 | 1.7 | 0.00 | 0.00 | 0.00 | 84 | 1013.6 |
| 20260906030025 | 72 | 242 | 0.0 | 1.7 | 0.00 | 0.00 | 0.00 | 83 | 1013.5 |
| 20260906024521 | 72 | 241 | 0.0 | 1.7 | 0.00 | 0.00 | 0.00 | 83 | 1013.4 |
| 20260906023022 | 72 | 240 | 0.0 | 2.6 | 0.00 | 0.00 | 0.00 | 82 | 1013.2 |
| 20260906021519 | 72 | 138 | 0.9 | 3.5 | 0.00 | 0.00 | 0.00 | 76 | 1012.9 |
| 20260906020021 | 73 | 138 | 0.0 | 0.0 | 0.00 | 0.00 | 0.00 | 75 | 1012.7 |
| 20260906014556 | 73 | 138 | 0.0 | 0.9 | 0.00 | 0.00 | 0.00 | 75 | 1012.6 |
| 20260906013050 | 73 | 138 | 0.0 | 0.0 | 0.00 | 0.00 | 0.00 | 74 | 1012.7 |
| 20260906011545 | 73 | 138 | 0.0 | 0.0 | 0.00 | 0.00 | 0.00 | 73 | 1012.6 |
| 20260906010045 | 74 | 138 | 0.0 | 2.6 | 0.00 | 0.00 | 0.00 | 73 | 1012.5 |
| 20260906004544 | 74 | 300 | 0.9 | 1.7 | 0.00 | 0.00 | 0.00 | 71 | 1012.4 |
| 20260906003043 | 75 | 301 | 0.0 | 0.9 | 0.00 | 0.00 | 0.00 | 71 | 1012.2 |
| 20260906001540 | 75 | 301 | 0.0 | 0.9 | 0.00 | 0.00 | 0.00 | 70 | 1012.2 |
| 20260906000041 | 76 | 301 | 0.0 | 1.7 | 0.00 | 0.00 | 0.00 | 70 | 1012.2 |
| 20260905234538 | 77 | 300 | 0.0 | 0.0 | 0.00 | 0.00 | 0.00 | 68 | 1012.1 |
| 20260905233040 | 78 | 300 | 0.0 | 0.0 | 0.00 | 0.00 | 0.00 | 67 | 1011.9 |
| 20260905231506 | 79 | 300 | 0.0 | 1.7 | 0.00 | 0.00 | 0.00 | 65 | 1011.7 |
| 20260905230007 | 80 | 300 | 1.7 | 4.3 | 0.00 | 0.00 | 0.00 | 63 | 1011.7 |
| 20260905224503 | 80 | 274 | 0.0 | 6.1 | 0.00 | 0.00 | 0.00 | 63 | 1011.7 |
| 20260905223004 | 79 | 221 | 0.0 | 2.6 | 0.00 | 0.00 | 0.00 | 64 | 1011.4 |
| 20260905221501 | 80 | 292 | 1.7 | 4.3 | 0.00 | 0.00 | 0.00 | 61 | 1011.4 |
| 20260905220100 | 80 | 288 | 4.3 | 7.0 | 0.00 | 0.00 | 0.00 | 59 | 1011.6 |
| 20260905214556 | 80 | 288 | 2.6 | 6.1 | 0.00 | 0.00 | 0.00 | 61 | 1011.6 |
| 20260905213054 | 80 | 274 | 2.6 | 8.7 | 0.00 | 0.00 | 0.00 | 59 | 1012.0 |
| 20260905211558 | 81 | 355 | 1.7 | 7.0 | 0.00 | 0.00 | 0.00 | 58 | 1012.3 |
| 20260905210052 | 81 | 281 | 0.0 | 3.5 | 0.00 | 0.00 | 0.00 | 59 | 1012.4 |
| 20260905204517 | 78 | 290 | 0.9 | 3.5 | 0.00 | 0.00 | 0.00 | 60 | 1012.7 |
| 20260905203016 | 75 | 290 | 0.0 | 2.6 | 0.00 | 0.00 | 0.00 | 70 | 1013.4 |
| 20260905201541 | 72 | 155 | 0.0 | 1.7 | 0.00 | 0.00 | 0.00 | 81 | 1013.3 |
| 20260905200038 | 71 | 155 | 1.7 | 4.3 | 0.00 | 0.00 | 0.00 | 75 | 1013.0 |
| 20260905194533 | 71 | 119 | 2.6 | 3.5 | 0.00 | 0.00 | 0.00 | 75 | 1012.9 |
| 20260905193030 | 71 | 141 | 0.0 | 9.6 | 0.00 | 0.00 | 0.00 | 69 | 1011.9 |
| 20260905191525 | 73 | 348 | 2.6 | 13.9 | 0.00 | 0.00 | 0.00 | 66 | 1013.1 |
| 20260905190023 | 81 | 311 | 17.4 | 30.4 | 0.00 | 0.00 | 0.00 | 47 | 1013.8 |
| 20260905184522 | 93 | 306 | 3.5 | 8.7 | 0.00 | 0.00 | 0.00 | 39 | 1012.4 |
| 20260905183019 | 95 | 351 | 3.5 | 7.0 | 0.00 | 0.00 | 0.00 | 37 | 1012.3 |
| 20260905181517 | 96 | 315 | 1.7 | 8.7 | 0.00 | 0.00 | 0.00 | 36 | 1011.6 |
| 20260905180014 | 96 | 319 | 2.6 | 7.0 | 0.00 | 0.00 | 0.00 | 36 | 1012.3 |
| 20260905174511 | 96 | 304 | 0.9 | 8.7 | 0.00 | 0.00 | 0.00 | 39 | 1012.7 |
| 20260905173009 | 96 | 319 | 3.5 | 9.6 | 0.00 | 0.00 | 0.00 | 37 | 1013.0 |
| 20260905171510 | 96 | 9 | 2.6 | 9.6 | 0.00 | 0.00 | 0.00 | 36 | 1013.1 |
| 20260905170007 | 96 | 345 | 2.6 | 7.0 | 0.00 | 0.00 | 0.00 | 37 | 1013.4 |
| 20260905164538 | 95 | 104 | 4.3 | 7.8 | 0.00 | 0.00 | 0.00 | 38 | 1013.8 |
| 20260905163038 | 95 | 143 | 2.6 | 5.2 | 0.00 | 0.00 | 0.00 | 37 | 1013.9 |
| 20260905161533 | 95 | 40 | 1.7 | 5.2 | 0.00 | 0.00 | 0.00 | 38 | 1014.1 |
| 20260905160033 | 95 | 5 | 1.7 | 3.5 | 0.00 | 0.00 | 0.00 | 41 | 1014.2 |
| 20260905154535 | 93 | 25 | 1.7 | 5.2 | 0.00 | 0.00 | 0.00 | 42 | 1014.2 |
| 20260905153030 | 93 | 118 | 0.9 | 4.3 | 0.00 | 0.00 | 0.00 | 45 | 1014.1 |
| 20260905151527 | 92 | 288 | 1.7 | 4.3 | 0.00 | 0.00 | 0.00 | 44 | 1014.2 |
| 20260905150033 | 90 | 271 | 0.0 | 4.3 | 0.00 | 0.00 | 0.00 | 50 | 1014.3 |
| 20260905144526 | 88 | 301 | 1.7 | 7.8 | 0.00 | 0.00 | 0.00 | 52 | 1014.3 |
| 20260905143025 | 89 | 292 | 0.9 | 3.5 | 0.00 | 0.00 | 0.00 | 52 | 1014.3 |
| 20260905141525 | 88 | 300 | 0.9 | 4.3 | 0.00 | 0.00 | 0.00 | 60 | 1014.4 |
| 20260905140023 | 89 | 216 | 0.0 | 1.7 | 0.00 | 0.00 | 0.00 | 60 | 1014.3 |
| 20260905134526 | 87 | 296 | 1.7 | 3.5 | 0.00 | 0.00 | 0.00 | 63 | 1014.4 |
| 20260905133021 | 85 | 314 | 1.7 | 7.0 | 0.00 | 0.00 | 0.00 | 64 | 1014.7 |
| 20260905131521 | 85 | 279 | 0.0 | 1.7 | 0.00 | 0.00 | 0.00 | 67 | 1014.9 |
| 20260905130018 | 83 | 279 | 0.0 | 2.6 | 0.00 | 0.00 | 0.00 | 68 | 1014.7 |
| 20260905124520 | 83 | 330 | 0.0 | 1.7 | 0.00 | 0.00 | 0.00 | 69 | 1014.7 |
| 20260905123016 | 81 | 338 | 0.0 | 0.0 | 0.00 | 0.00 | 0.00 | 74 | 1014.6 |
| 20260905121517 | 78 | 320 | 0.0 | 2.6 | 0.00 | 0.00 | 0.00 | 77 | 1014.5 |
| 20260905120012 | 76 | 208 | 0.0 | 0.9 | 0.00 | 0.00 | 0.00 | 86 | 1014.3 |
| 20260905114504 | 74 | 208 | 0.0 | 0.9 | 0.00 | 0.00 | 0.00 | 87 | 1014.1 |
| 20260905113005 | 73 | 207 | 0.9 | 2.6 | 0.00 | 0.00 | 0.00 | 87 | 1014.0 |
| 20260905110003 | 73 | 202 | 0.0 | 0.0 | 0.00 | 0.00 | 0.00 | 87 | 1013.6 |
| 20260905104502 | 73 | 202 | 0.0 | 0.0 | 0.00 | 0.00 | 0.00 | 86 | 1013.5 |
| 20260905103004 | 72 | 202 | 0.0 | 0.9 | 0.00 | 0.00 | 0.00 | 85 | 1013.4 |
| 20260905101659 | 71 | 202 | 0.0 | 0.9 | 0.00 | 0.00 | 0.00 | 78 | 1013.4 |
| 20260905100105 | 72 | 202 | 0.0 | 0.0 | 0.00 | 0.00 | 0.00 | 79 | 1013.1 |
| 20260905094558 | 72 | 202 | 0.0 | 0.0 | 0.00 | 0.00 | 0.00 | 76 | 1013.3 |
| 20260905093056 | 72 | 202 | 0.0 | 0.0 | 0.00 | 0.00 | 0.00 | 73 | 1013.4 |
| 20260905091654 | 73 | 202 | 0.0 | 0.0 | 0.00 | 0.00 | 0.00 | 73 | 1013.3 |
| 20260905090034 | 73 | 202 | 0.0 | 0.0 | 0.00 | 0.00 | 0.00 | 73 | 1013.2 |
| 20260905084527 | 73 | 202 | 0.0 | 3.5 | 0.00 | 0.00 | 0.00 | 73 | 1013.4 |
| 20260905083024 | 73 | 168 | 0.0 | 0.0 | 0.00 | 0.00 | 0.00 | 73 | 1013.6 |
| 20260905081523 | 73 | 168 | 0.0 | 0.0 | 0.00 | 0.00 | 0.00 | 73 | 1013.7 |
| 20260905080020 | 73 | 168 | 0.0 | 0.0 | 0.00 | 0.00 | 0.00 | 73 | 1013.9 |
| 20260905074518 | 73 | 168 | 0.0 | 0.0 | 0.00 | 0.00 | 0.00 | 72 | 1014.0 |
| 20260905073014 | 73 | 168 | 0.0 | 0.0 | 0.00 | 0.00 | 0.00 | 71 | 1014.1 |
| 20260905071513 | 74 | 168 | 0.0 | 0.0 | 0.00 | 0.00 | 0.00 | 70 | 1014.2 |
| 20260905070011 | 74 | 168 | 0.0 | 1.7 | 0.00 | 0.00 | 0.00 | 71 | 1014.3 |
| 20260905064510 | 74 | 169 | 0.0 | 0.0 | 0.00 | 0.00 | 0.00 | 71 | 1014.5 |
| 20260905063006 | 74 | 169 | 0.0 | 2.6 | 0.00 | 0.00 | 0.00 | 70 | 1014.5 |
| 20260905061503 | 75 | 269 | 0.0 | 0.0 | 0.00 | 0.00 | 0.00 | 67 | 1014.6 |
| 20260905060001 | 76 | 269 | 0.0 | 0.0 | 0.00 | 0.00 | 0.00 | 67 | 1014.9 |
| 20260905054600 | 76 | 269 | 0.0 | 0.0 | 0.00 | 0.00 | 0.00 | 67 | 1015.0 |
| 20260905053056 | 76 | 269 | 0.0 | 0.0 | 0.00 | 0.00 | 0.00 | 66 | 1015.0 |
| 20260905051601 | 77 | 269 | 0.0 | 0.0 | 0.00 | 0.00 | 0.00 | 66 | 1015.1 |
| 20260905050053 | 77 | 269 | 0.0 | 0.0 | 0.00 | 0.00 | 0.00 | 65 | 1015.1 |
| 20260905044552 | 79 | 269 | 0.0 | 0.0 | 0.00 | 0.00 | 0.00 | 63 | 1015.0 |
| 20260905043056 | 79 | 269 | 0.0 | 0.0 | 0.00 | 0.00 | 0.00 | 62 | 1015.1 |
| 20260905041549 | 79 | 269 | 0.0 | 0.0 | 0.00 | 0.00 | 0.00 | 64 | 1015.0 |
| 20260905040055 | 79 | 269 | 0.0 | 0.0 | 0.00 | 0.00 | 0.00 | 63 | 1015.0 |
| 20260905034546 | 79 | 188 | 0.0 | 0.0 | 0.00 | 0.00 | 0.00 | 63 | 1015.0 |
| 20260905033047 | 78 | 188 | 0.0 | 0.0 | 0.00 | 0.00 | 0.00 | 65 | 1015.0 |